Location: Breitenfeld
(46.8500°N, 15.6333°E)
Time: 05:58:50
(UTC+00:00)

Cosmos 2058 Rocket - Pass Details

Date: 09 April 2020
Orbit: 610 x 640 km, 82.5° (Epoch: 29 May)

Event Time Altitude Azimuth Distance (km) Brightness Sun altitude
Rises 18:52:38 0° 187° (S) 2,931 6.3 -12.8°
Reaches altitude 10° 18:54:51 10° 187° (S) 2,027 5.5 -13.1°
Maximum altitude 18:59:22 89° 116° (ESE) 646 3.1 -13.8°
Drops below altitude 10° 19:03:54 10° 9° (N) 2,037 6.0 -14.5°
Sets 19:06:09 0° 10° (N) 2,947 6.8 -14.8°
